Location: Asheville, NC
(35.6000°N, 82.5500°W)
Time: 10:51:17

AO-7 - Pass Details

Date: 17 March 2018
Orbit: 1440 x 1459 km, 101.7° (Epoch: 20 March)

Event Time Altitude Azimuth Distance (km) Brightness Sun altitude
Rises 05:52:43 0° 11° (N) 4,542 ? -22.1°
Reaches altitude 10° 05:55:34 10° 7° (N) 3,559 ? -21.5°
Maximum altitude 06:03:30 53° 294° (WNW) 1,714 ? -19.9°
Enters shadow 06:09:21 20° 225° (SW) 2,859 ? -18.8°
